EW2001 Weather Reports


time (UTC)temp
F
wind
direction
speed
knots
gust
knots
rain 1hr
in
rain 24hr
in
rain mn
in
humidity
%
barometer
mb
20260503071532 50 290 0.0 0.0 0.00 0.00 0.00 78 1017.8
20260503054527 54 298 0.0 0.0 0.00 0.00 0.00 72 1017.3
20260503053015 56 298 0.0 0.0 0.00 0.00 0.00 68 1017.2
20260503051515 57 291 0.0 2.6 0.00 0.00 0.00 64 1017.1
20260503050015 58 313 0.0 0.0 0.00 0.00 0.00 62 1017.0
20260503044515 59 318 0.0 0.0 0.00 0.00 0.00 55 1017.0
20260503043013 61 299 0.0 2.6 0.00 0.00 0.00 51 1016.9
20260503041513 61 64 0.0 1.7 0.00 0.00 0.00 50 1016.8
20260503040012 62 44 0.0 0.0 0.00 0.00 0.00 54 1016.7
20260503034512 64 44 0.0 0.0 0.00 0.00 0.00 49 1016.5
20260503033021 65 44 0.0 0.0 0.00 0.00 0.00 45 1016.3
20260503031511 66 48 0.0 3.5 0.00 0.00 0.00 42 1016.0
20260503030011 68 54 0.0 2.6 0.00 0.00 0.00 41 1015.9
20260503024509 70 54 0.0 1.7 0.00 0.00 0.00 37 1015.8
20260503023009 71 46 0.9 3.5 0.00 0.00 0.00 35 1015.8
20260503021508 72 49 1.7 5.2 0.00 0.00 0.00 33 1015.7
20260503020007 74 10 0.0 7.0 0.00 0.00 0.00 34 1015.7
20260503014506 77 315 0.0 1.7 0.00 0.00 0.00 26 1015.6
20260503013006 77 197 1.7 4.3 0.00 0.00 0.00 26 1015.5
20260503011504 77 257 0.0 2.6 0.00 0.00 0.00 25 1015.6
20260503010104 75 297 0.0 0.0 0.00 0.00 0.00 28 1015.7
20260503004558 75 347 0.9 6.1 0.00 0.00 0.00 30 1016.1
20260503003105 74 308 0.0 3.5 0.00 0.00 0.00 30 1016.2
20260503001610 74 35 0.0 5.2 0.00 0.00 0.00 27 1016.2
20260503000057 75 72 1.7 7.8 0.00 0.00 0.00 27 1016.2
20260502234553 73 63 2.6 5.2 0.00 0.00 0.00 30 1016.4
20260502233050 71 78 0.9 5.2 0.00 0.00 0.00 32 1016.6
20260502231549 72 82 2.6 7.0 0.00 0.00 0.00 31 1016.7
20260502230046 73 60 4.3 7.0 0.00 0.00 0.00 30 1016.8
20260502224545 73 102 5.2 7.8 0.00 0.00 0.00 31 1017.0
20260502223043 75 96 5.2 7.0 0.00 0.00 0.00 26 1017.1
20260502221544 74 84 3.5 6.1 0.00 0.00 0.00 25 1017.4
20260502220039 74 74 2.6 6.1 0.00 0.00 0.00 28 1017.6
20260502214546 74 69 2.6 5.2 0.00 0.00 0.00 25 1017.8
20260502213036 74 113 2.6 6.1 0.00 0.00 0.00 26 1018.1
20260502211532 74 77 3.5 5.2 0.00 0.00 0.00 27 1018.3
20260502210028 73 51 0.9 5.2 0.00 0.00 0.00 29 1018.5
20260502204530 72 98 2.6 5.2 0.00 0.00 0.00 27 1018.6
20260502203026 72 68 2.6 5.2 0.00 0.00 0.00 33 1018.8
20260502201526 72 69 3.5 7.0 0.00 0.00 0.00 35 1019.0
20260502200017 70 100 1.7 5.2 0.00 0.00 0.00 36 1019.3
20260502194514 69 63 1.7 5.2 0.00 0.00 0.00 37 1019.4
20260502193012 69 96 0.9 5.2 0.00 0.00 0.00 39 1019.7
20260502191509 68 100 0.9 6.1 0.00 0.00 0.00 40 1019.8
20260502190006 67 107 0.9 4.3 0.00 0.00 0.00 42 1020.0
20260502184502 66 110 0.9 7.0 0.00 0.00 0.00 45 1020.2
20260502183105 65 98 4.3 7.8 0.00 0.00 0.00 45 1020.4
20260502181609 64 73 2.6 8.7 0.00 0.00 0.00 48 1020.5
20260502163053 59 98 3.5 9.6 0.00 0.00 0.00 54 1021.2
20260502161540 59 90 3.5 7.0 0.00 0.00 0.00 55 1021.4
20260502151532 56 46 2.6 6.1 0.00 0.00 0.00 59 1021.5
20260502123005 43 246 0.0 0.9 0.00 0.00 0.00 85 1021.0
20260502121508 44 246 0.9 1.7 0.00 0.00 0.00 85 1020.9
20260502114503 44 246 0.0 1.7 0.00 0.00 0.00 84 1020.9
20260502113100 44 246 0.0 1.7 0.00 0.00 0.00 85 1020.8
20260502111557 44 246 0.0 0.0 0.00 0.00 0.00 84 1020.8
20260502104557 45 246 0.0 0.0 0.00 0.00 0.00 84 1020.9
20260502103059 45 246 0.0 0.9 0.00 0.00 0.00 83 1020.9
20260502101618 45 246 0.0 0.0 0.00 0.00 0.00 83 1020.7
20260502100112 46 246 0.0 0.0 0.00 0.00 0.00 82 1020.6